Wind_Speed
14 14 14 14 14 13 13 13 13 14 14 14 14 15 15 16 16 17 17 17 17 17 16 16 16 16 16 17 18 18 18 18 18 18 19 19 19 18 19 19 19 19 20 20
15 15 15 15 15 15 15 14 14 14 14 14 14 15 15 16 16 16 16 17 17 17 16 16 16 16 16 17 17 17 18 18 18 17 18 18 18 18 18 19 19 19 19 18
16 15 15 16 14 14 15 15 15 15 15 14 15 15 16 16 16 16 16 16 17 16 16 17 16 16 16 17 17 17 18 18 17 17 17 18 18 18 18 18 17 17 17 17
17 17 17 17 16 15 16 16 15 15 15 15 16 16 16 16 16 16 16 16 16 16 16 16 16 16 16 17 17 17 17 17 17 17 18 18 17 17 17 17 17 16 16 16
19 19 19 19 17 17 16 16 16 16 17 16 16 16 16 16 16 16 16 17 17 16 16 16 16 16 16 17 17 17 17 17 17 18 18 18 18 18 17 17 16 16 16 16
20 20 20 19 19 18 17 17 17 17 17 17 16 16 17 17 16 16 16 17 17 16 16 16 16 17 17 17 17 17 17 17 17 17 17 17 17 17 16 15 14 14 15 15
21 21 21 21 20 19 18 19 18 18 18 18 18 18 18 17 17 17 17 17 17 16 16 16 17 17 17 17 17 17 17 17 17 17 17 16 16 15 15 15 14 14 15 15
21 21 21 21 21 20 20 20 19 19 19 19 19 19 18 18 18 18 17 17 17 16 16 16 17 17 17 17 18 18 17 17 16 16 15 15 15 15 15 15 15 15 15 16
22 22 22 21 21 21 21 21 21 21 20 19 19 19 19 19 19 18 17 17 17 17 17 17 17 17 18 18 18 17 17 16 15 15 14 15 15 15 15 15 15 15 15 16
22 22 22 22 22 22 22 22 22 22 21 20 20 19 19 19 19 18 18 17 17 18 18 18 18 18 18 18 17 17 16 15 14 14 14 15 15 16 16 16 16 15 16 17
23 23 23 23 23 23 23 22 22 21 21 21 20 20 20 19 18 18 18 18 18 18 18 17 17 18 17 17 17 16 15 15 14 14 15 15 16 17 16 16 16 16 16 16
23 24 24 24 23 22 21 22 22 21 21 20 20 20 20 20 20 19 19 19 19 19 18 18 18 18 17 17 16 15 15 14 14 14 15 16 16 17 16 16 15 15 15 16
24 23 23 23 24 23 22 21 22 21 21 21 21 21 20 21 21 21 20 21 21 20 19 19 18 17 17 16 16 15 15 15 15 15 15 16 17 16 16 16 16 16 16 16
24 24 23 23 22 23 23 23 22 23 23 23 22 22 22 22 21 21 21 22 21 20 20 19 18 17 17 16 16 16 16 16 16 16 16 16 17 17 16 16 16 15 16 16
25 24 23 23 23 23 23 23 23 23 24 24 24 24 23 23 23 22 22 22 22 21 21 19 18 17 17 17 16 16 16 16 16 16 16 16 17 16 16 16 15 16 16 17
26 25 25 24 24 24 24 24 23 23 24 24 25 24 24 23 22 22 22 22 21 21 20 19 18 18 18 18 17 17 17 17 17 18 18 17 17 16 16 15 15 16 16 16
26 25 25 25 24 24 24 25 24 24 24 23 24 24 23 23 22 22 22 21 21 21 20 19 19 19 19 19 18 18 17 18 18 18 17 17 16 16 16 15 15 16 16 17
26 25 25 25 25 25 25 24 24 24 24 23 23 24 24 24 23 22 21 21 20 19 19 19 19 19 20 19 18 18 17 17 17 17 17 17 16 16 15 15 16 16 16 17
25 25 25 25 25 25 24 24 24 23 23 23 22 22 22 22 21 21 21 20 19 18 18 18 18 18 18 18 18 18 17 17 18 18 17 17 16 15 15 15 15 16 16 16
25 25 24 24 24 23 24 24 23 23 23 23 22 22 21 20 20 20 20 20 19 18 18 18 18 17 17 17 17 17 17 17 17 17 17 17 16 15 15 15 15 15 15 16
25 24 24 24 24 23 23 23 24 23 23 23 23 22 21 20 20 20 20 19 18 18 18 17 17 17 17 17 17 17 17 17 17 17 17 16 15 15 15 15 15 15 15 15
25 25 24 24 24 24 24 24 24 24 24 23 23 22 22 22 21 21 21 20 20 19 19 18 18 18 18 17 17 17 17 17 17 17 16 16 16 16 15 15 15 15 15 15
24 25 25 25 25 24 24 24 24 24 24 23 23 23 22 22 22 22 21 21 20 19 19 19 19 18 17 17 17 16 16 16 16 16 16 16 16 16 16 16 15 15 15 15
24 24 25 25 25 25 25 24 24 24 24 24 23 23 23 22 22 22 21 21 21 20 19 19 18 17 17 17 16 16 15 15 15 16 16 16 15 16 16 16 16 16 16 16
25 25 25 25 25 24 24 24 24 24 24 23 23 23 22 22 21 21 21 21 20 20 19 19 18 17 17 17 17 16 15 15 15 16 16 16 16 16 16 16 16 16 16 16
24 24 24 24 24 23 23 23 24 24 23 23 23 22 22 21 20 20 20 20 20 19 19 18 18 18 17 17 17 16 16 16 16 16 16 16 16 16 16 16 16 16 16 16
22 23 23 23 23 23 22 22 23 23 23 23 22 22 21 21 20 20 19 19 19 19 19 19 18 18 18 17 17 17 16 16 17 17 17 17 17 17 17 16 16 16 16 16
Wind_Direction
271 275 277 279 281 281 285 288 289 293 294 297 299 303 307 310 314 317 320 324 326 327 325 325 326 326 326 324 320 317 315 314 312 312 310 309 309 308 309 311 312 310 310 310
273 275 277 277 277 280 283 286 287 289 292 295 295 300 305 310 313 316 319 321 323 323 323 323 323 325 326 327 325 322 318 318 318 313 312 313 313 312 313 314 314 313 312 314
274 277 278 276 278 278 280 282 284 288 291 294 295 299 302 307 311 313 316 320 321 320 321 321 322 322 324 327 327 326 325 323 321 319 317 316 316 316 316 316 317 317 318 318
273 273 273 278 280 279 281 283 285 288 291 293 293 294 298 303 306 308 311 316 319 319 319 320 320 321 323 326 327 327 327 326 324 323 322 320 319 318 317 318 318 318 319 322
268 271 274 277 278 279 280 282 283 286 289 290 290 292 296 300 301 304 308 311 314 313 315 316 318 320 321 324 325 325 324 324 323 323 323 322 321 321 321 322 320 321 322 325
267 268 271 274 274 276 278 279 282 286 288 288 290 292 296 298 297 302 307 310 311 311 313 315 317 316 317 320 322 322 322 322 323 324 325 325 324 323 323 324 324 325 327 328
268 268 270 271 272 273 275 277 280 282 284 285 286 290 294 295 294 299 303 307 309 309 310 312 313 313 314 317 320 320 318 318 322 324 326 327 328 328 328 327 327 328 328 329
264 266 267 270 270 270 272 275 278 281 283 285 287 289 290 291 292 295 299 303 305 306 306 308 309 309 310 314 315 316 316 316 319 321 325 328 329 330 330 330 329 328 328 329
263 262 264 266 268 270 272 274 276 278 281 283 286 287 287 289 291 292 294 297 300 302 302 305 306 308 310 312 312 314 316 315 316 318 321 325 327 326 325 325 326 327 328 329
264 263 263 265 268 270 271 273 275 278 279 282 284 286 287 289 290 290 291 292 295 298 299 301 303 306 308 309 311 313 315 314 313 314 317 322 325 324 324 324 323 324 325 327
264 262 263 265 269 270 270 272 274 276 278 280 282 283 285 287 288 288 288 290 293 294 295 296 301 305 305 306 308 310 313 313 311 311 316 321 323 323 322 323 323 323 324 326
266 266 265 265 266 268 268 269 271 272 274 278 281 283 284 285 286 287 288 289 291 292 292 293 296 300 301 302 304 306 310 312 312 312 316 319 320 321 322 324 325 325 325 326
264 265 266 266 266 266 267 267 267 269 271 274 277 279 281 282 282 285 286 289 289 289 291 291 293 294 296 298 301 304 308 311 311 311 313 316 318 319 321 323 324 324 324 325
264 265 265 265 266 267 267 267 267 268 271 275 277 278 280 282 283 284 284 286 289 289 291 290 288 289 292 294 298 300 303 306 308 308 311 314 315 318 321 322 323 323 324 325
264 264 264 265 266 266 266 265 266 270 273 274 275 278 279 280 281 282 283 284 286 289 290 287 287 288 291 291 292 295 297 300 304 307 309 311 313 315 317 319 320 322 324 326
261 262 264 265 267 267 266 264 265 268 270 273 274 276 278 278 278 279 280 281 284 287 286 283 283 287 289 288 288 292 294 296 299 303 306 307 307 310 313 316 319 321 323 324
261 262 264 265 265 266 267 266 267 269 270 269 270 273 274 274 278 280 281 283 283 284 282 280 281 282 284 284 285 286 289 293 297 301 303 305 305 306 309 312 317 318 319 322
260 261 263 264 264 265 265 268 269 270 271 272 272 272 271 271 274 277 280 281 281 280 279 279 280 281 280 281 285 286 287 290 293 299 301 302 302 304 307 310 312 315 317 319
257 258 260 262 264 265 266 267 269 270 271 272 274 276 276 275 275 278 279 277 279 280 281 283 283 280 281 284 284 285 287 290 292 294 297 299 299 300 304 306 310 314 316 318
257 259 260 262 263 265 266 267 268 269 270 271 272 273 274 274 274 276 277 276 276 277 281 284 285 285 284 286 287 287 288 291 293 294 295 296 298 299 301 302 306 310 313 316
255 256 257 260 262 265 267 268 268 269 270 271 273 273 272 272 272 273 276 278 278 278 282 288 288 287 286 285 286 287 290 291 293 294 296 296 295 296 299 300 302 306 309 312
253 254 257 259 262 264 266 267 268 268 269 271 272 272 271 270 271 273 275 276 277 279 283 287 286 285 284 283 284 286 290 292 293 293 294 294 293 292 294 298 299 300 303 307
253 255 258 260 261 262 263 265 265 266 267 268 269 271 273 273 273 273 273 273 274 277 281 283 283 280 278 277 278 282 288 291 291 292 293 292 291 290 291 294 297 298 300 304
254 255 258 260 260 260 261 263 264 265 266 267 268 270 271 272 273 272 271 271 271 273 277 280 279 276 273 273 275 280 284 285 285 286 288 290 291 291 292 292 293 294 297 302
257 256 257 259 260 260 261 262 263 264 265 267 267 268 269 269 269 270 271 272 271 271 274 277 276 273 270 270 274 277 280 283 284 285 287 288 288 288 290 290 291 292 294 299
257 257 257 258 259 259 260 261 261 261 263 265 266 266 266 267 267 269 269 270 269 270 272 274 272 269 268 269 271 273 276 280 283 282 284 287 287 287 287 289 292 294 296 299
256 255 256 256 257 258 259 260 260 260 261 262 264 263 263 264 266 267 267 267 268 268 271 272 270 267 268 268 269 273 276 280 280 279 281 285 286 287 287 288 290 293 296 299
Height
5825 5825 5824 5823 5822 5822 5822 5821 5820 5819 5818 5817 5815 5813 5810 5808 5806 5804 5801 5798 5795 5792 5789 5786 5783 5780 5777 5774 5770 5767 5764 5760 5757 5754 5751 5748 5745 5742 5739 5736 5733 5730 5728 5725
5821 5820 5819 5819 5818 5818 5817 5817 5816 5815 5814 5813 5811 5809 5807 5805 5803 5800 5798 5795 5792 5789 5786 5783 5780 5777 5774 5771 5767 5764 5760 5757 5753 5750 5747 5744 5741 5739 5736 5732 5729 5726 5723 5720
5817 5816 5815 5814 5815 5814 5813 5812 5812 5811 5810 5808 5807 5805 5803 5801 5799 5797 5794 5792 5788 5785 5783 5780 5777 5774 5771 5768 5764 5761 5757 5753 5750 5747 5744 5741 5738 5735 5732 5729 5726 5722 5719 5716
5812 5812 5810 5812 5810 5809 5808 5807 5807 5806 5805 5804 5802 5801 5799 5797 5795 5793 5791 5788 5785 5782 5779 5776 5773 5771 5768 5765 5761 5758 5754 5751 5747 5744 5741 5737 5734 5731 5728 5725 5722 5719 5716 5713
5807 5806 5805 5806 5805 5804 5803 5803 5801 5801 5800 5798 5797 5796 5794 5793 5791 5788 5786 5784 5781 5779 5776 5773 5770 5767 5765 5761 5758 5755 5752 5748 5744 5741 5738 5734 5731 5728 5725 5722 5719 5716 5713 5709
5800 5800 5800 5801 5799 5798 5799 5797 5797 5795 5794 5793 5792 5792 5790 5788 5786 5784 5782 5780 5777 5775 5772 5769 5767 5764 5761 5758 5755 5752 5748 5745 5741 5738 5734 5731 5728 5725 5722 5719 5716 5713 5710 5706
5794 5794 5794 5793 5793 5793 5794 5793 5791 5790 5789 5788 5787 5787 5785 5783 5781 5780 5778 5775 5773 5771 5768 5766 5763 5760 5758 5755 5751 5748 5745 5741 5738 5735 5731 5728 5725 5722 5719 5716 5713 5710 5707 5704
5788 5788 5789 5786 5786 5787 5787 5786 5785 5784 5783 5783 5782 5780 5779 5778 5776 5775 5773 5771 5769 5767 5764 5762 5759 5756 5754 5751 5747 5744 5741 5738 5734 5731 5728 5725 5722 5719 5716 5713 5710 5707 5704 5701
5782 5783 5781 5780 5779 5780 5779 5779 5779 5778 5778 5777 5776 5775 5774 5772 5771 5769 5768 5766 5764 5762 5760 5757 5755 5752 5749 5746 5743 5740 5737 5734 5731 5728 5725 5722 5720 5717 5713 5711 5708 5705 5702 5698
5773 5773 5774 5773 5773 5773 5773 5773 5772 5772 5771 5771 5770 5769 5768 5767 5765 5764 5762 5761 5759 5757 5755 5753 5750 5747 5744 5741 5738 5736 5733 5730 5727 5725 5722 5719 5717 5714 5711 5708 5705 5702 5699 5696
5766 5766 5766 5766 5766 5766 5766 5766 5766 5765 5765 5764 5764 5763 5762 5761 5760 5758 5757 5755 5754 5752 5750 5748 5745 5743 5740 5737 5734 5732 5729 5726 5724 5721 5719 5717 5714 5711 5708 5705 5702 5699 5696 5693
5759 5759 5759 5759 5759 5759 5759 5759 5759 5759 5758 5758 5757 5756 5756 5755 5754 5752 5751 5749 5748 5746 5744 5742 5740 5738 5735 5733 5730 5728 5725 5723 5721 5718 5716 5713 5711 5708 5705 5702 5699 5696 5693 5690
5751 5751 5751 5752 5752 5752 5752 5752 5752 5751 5751 5751 5750 5750 5749 5748 5747 5746 5745 5743 5742 5740 5739 5737 5735 5733 5730 5728 5726 5724 5722 5720 5718 5715 5713 5710 5707 5704 5702 5699 5696 5693 5690 5687
5743 5744 5744 5744 5744 5744 5745 5745 5745 5745 5744 5744 5743 5742 5742 5741 5740 5739 5738 5737 5735 5734 5733 5731 5729 5728 5726 5724 5722 5720 5718 5716 5714 5712 5709 5707 5704 5701 5698 5695 5692 5690 5687 5684
5735 5736 5736 5737 5737 5737 5737 5737 5737 5737 5737 5737 5736 5735 5734 5734 5733 5732 5731 5730 5729 5728 5726 5725 5724 5722 5721 5719 5718 5716 5714 5712 5710 5708 5705 5703 5700 5697 5694 5691 5689 5686 5683 5680
5726 5727 5728 5729 5729 5730 5730 5730 5730 5729 5729 5729 5728 5728 5727 5726 5726 5725 5724 5723 5723 5721 5720 5719 5718 5717 5715 5714 5713 5711 5710 5708 5706 5704 5701 5698 5696 5693 5691 5688 5685 5683 5680 5677
5718 5719 5720 5721 5721 5722 5722 5722 5722 5722 5721 5721 5721 5721 5720 5720 5719 5718 5717 5716 5716 5715 5713 5713 5712 5711 5710 5708 5707 5706 5704 5702 5701 5699 5696 5694 5691 5689 5687 5684 5682 5680 5677 5674
5710 5711 5712 5712 5713 5713 5714 5714 5714 5714 5714 5714 5713 5713 5713 5712 5712 5711 5711 5710 5709 5708 5707 5706 5706 5705 5703 5702 5701 5700 5698 5697 5695 5694 5692 5689 5687 5685 5683 5681 5678 5676 5674 5671
5701 5702 5703 5704 5704 5705 5705 5706 5706 5706 5706 5706 5706 5706 5705 5705 5705 5704 5703 5703 5702 5702 5701 5700 5699 5698 5697 5696 5694 5693 5692 5691 5690 5688 5686 5684 5682 5681 5679 5677 5675 5673 5670 5667
5693 5694 5695 5695 5696 5697 5697 5698 5698 5698 5699 5699 5699 5699 5699 5698 5698 5698 5697 5696 5696 5695 5694 5693 5693 5692 5691 5690 5688 5687 5686 5685 5684 5682 5681 5679 5677 5676 5674 5672 5671 5669 5667 5664
5684 5686 5687 5687 5688 5689 5689 5690 5690 5691 5691 5691 5691 5691 5691 5691 5691 5691 5690 5690 5689 5688 5688 5687 5686 5685 5685 5683 5682 5681 5680 5679 5678 5677 5675 5673 5672 5671 5669 5668 5666 5665 5663 5660
5676 5677 5678 5679 5680 5681 5681 5682 5682 5683 5683 5683 5683 5684 5684 5684 5684 5683 5683 5683 5683 5682 5681 5681 5680 5679 5678 5677 5677 5676 5675 5674 5672 5671 5670 5668 5667 5666 5664 5663 5662 5660 5658 5656
5668 5669 5670 5671 5672 5673 5673 5674 5674 5675 5675 5676 5676 5676 5676 5676 5676 5676 5676 5676 5676 5675 5675 5674 5673 5672 5672 5671 5671 5670 5669 5668 5667 5666 5665 5663 5662 5661 5660 5658 5657 5655 5654 5652
5659 5660 5662 5662 5663 5664 5665 5666 5667 5667 5668 5668 5668 5669 5669 5669 5669 5669 5669 5669 5668 5668 5668 5667 5667 5666 5666 5665 5665 5664 5664 5663 5662 5661 5659 5658 5657 5656 5654 5653 5652 5650 5649 5647
5651 5652 5653 5654 5655 5656 5657 5658 5658 5659 5660 5660 5660 5661 5661 5661 5661 5661 5661 5661 5661 5661 5661 5661 5660 5660 5660 5660 5659 5659 5658 5657 5656 5655 5654 5653 5652 5651 5649 5648 5646 5645 5643 5642
5643 5644 5645 5646 5647 5648 5648 5649 5650 5651 5652 5652 5653 5653 5654 5654 5654 5654 5654 5654 5655 5655 5655 5654 5654 5654 5654 5654 5653 5653 5652 5652 5651 5650 5649 5648 5647 5646 5644 5643 5641 5640 5638 5637
5635 5636 5637 5638 5639 5640 5641 5642 5642 5643 5644 5644 5645 5645 5646 5646 5647 5647 5647 5648 5648 5648 5648 5648 5647 5648 5648 5647 5647 5647 5646 5646 5645 5644 5643 5642 5641 5640 5639 5637 5636 5634 5633 5632